sat.trackr.live / text

‹ back to catalog

STARLINK-4798

NORAD 53858 · 2022-114AS

PAYLOAD ACTIVE UNKNOWN

§ Identity

Operator
Country
US
Launch date
2022-09-19
Launch site
AFETR
Launch vehicle
Mass (kg)
RCS (m²)

Purposes: comms

External: N2YO · Heavens-Above · Gunter

§ Orbital elements

Epoch: 2026-07-10T23:54:43.210080Z

Period
87.64 min
Inclination
53.2001°
Eccentricity
0.0010925
Mean motion
16.43068160 rev/d
Perigee alt
150.5 km
Apogee alt
164.8 km
Semi-major
6,535.8 km
B*
2.6472e-4
RAAN
46.4659°
Arg perigee
273.2968°
Mean anomaly
86.6832°
Rev number
21,234

§ Raw data

STARLINK-47981 53858U 22114AS  26191.99633345  .06875391  12441-4  26472-3 0  99992 53858  53.2001  46.4659 0010925 273.2968  86.6832 16.43068160212340

JSON: /api/v1/satellites/53858 · /tle

For live sub-satellite position, see the globe view (requires WebGL).

§ Visibility from observer

Set your observer location to see the next 7 days of passes ≥ 10°. The values pass through the URL so the page stays shareable.

No JS? Fill the form by hand. The geolocation button needs JavaScript.